,,Stat6,,Stat2,,Stat8,,Stat9,,Stat10,,Wind1,,Wind1,
time,status,PA1M_AVG,status,PR1M_SUM,status,RH1M_AVG,status,SR1M_AVG,status,TA1M_AVG,status,W1dAve1m,status,W1sAve1m,
2004-06-05, 00:00:00,VALID,918.446,VALID,0,VALID,100,VALID,0,VALID,18.5796,VALID,120,VALID,0,
2004-06-05, 00:01:00,VALID,918.419,VALID,0,VALID,100,VALID,0.0339617,VALID,18.5856,VALID,120,VALID,0,
2004-06-05, 00:02:00,VALID,918.379,VALID,0,VALID,100,VALID,0.0339617,VALID,18.5851,VALID,120,VALID,0,
2004-06-05, 00:03:00,VALID,918.319,VALID,0,VALID,100,VALID,0.0509425,VALID,18.592,VALID,120,VALID,0,
2004-06-05, 00:04:00,VALID,918.28,VALID,0,VALID,100,VALID,0.0339617,VALID,18.5884,VALID,120,VALID,0,
2004-06-05, 00:05:00,VALID,918.229,VALID,0,VALID,100,VALID,0.0339617,VALID,18.6077,VALID,120,VALID,0,
2004-06-05, 00:06:00,VALID,918.183,VALID,0,VALID,100,VALID,0.0339617,VALID,18.5978,VALID,120,VALID,0,
2004-06-05, 00:07:00,VALID,918.157,VALID,0,VALID,100,VALID,0,VALID,18.5985,VALID,120,VALID,0,
2004-06-05, 00:08:00,VALID,918.117,VALID,0,VALID,100,VALID,0,VALID,18.6087,VALID,120,VALID,0,
2004-06-05, 00:09:00,VALID,918.106,VALID,0,VALID,100,VALID,0.0169808,VALID,18.595,VALID,120,VALID,0,
2004-06-05, 00:10:00,VALID,918.091,VALID,0,VALID,100,VALID,0.0169808,VALID,18.592,VALID,120,VALID,0,
2004-06-05, 00:11:00,VALID,918.104,VALID,0,VALID,100,VALID,0,VALID,18.5955,VALID,120,VALID,0,
2004-06-05, 00:12:00,VALID,918.097,VALID,0,VALID,100,VALID,0.0169808,VALID,18.5886,VALID,120,VALID,0,
2004-06-05, 00:13:00,VALID,918.113,VALID,0,VALID,100,VALID,0.0169808,VALID,18.5858,VALID,120,VALID,0.0290179,
2004-06-05, 00:14:00,VALID,918.112,VALID,0,VALID,100,VALID,0.0169808,VALID,18.5662,VALID,120,VALID,0.0249619,
2004-06-05, 00:15:00,VALID,918.093,VALID,0,VALID,100,VALID,0.0509425,VALID,18.5434,VALID,120,VALID,0.127418,
2004-06-05, 00:16:00,VALID,918.091,VALID,0,VALID,100,VALID,0,VALID,18.5118,VALID,96,VALID,0.45367,
2004-06-05, 00:17:00,VALID,918.097,VALID,0,VALID,100,VALID,0.0339617,VALID,18.4756,VALID,20,VALID,1.03762,
2004-06-05, 00:18:00,VALID,918.084,VALID,0,VALID,100,VALID,0,VALID,18.4274,VALID,16,VALID,0.735973,
2004-06-05, 00:19:00,VALID,918.081,VALID,0,VALID,100,VALID,0.0339617,VALID,18.4021,VALID,16,VALID,0.340116,
2004-06-05, 00:20:00,VALID,918.083,VALID,0,VALID,100,VALID,0.0169808,VALID,18.3698,VALID,16,VALID,0.025436,
2004-06-05, 00:21:00,VALID,918.088,VALID,0,VALID,100,VALID,0,VALID,18.3608,VALID,16,VALID,0.00726744,
2004-06-05, 00:22:00,VALID,918.098,VALID,0,VALID,100,VALID,0,VALID,18.3502,VALID,16,VALID,0.149479,
2004-06-05, 00:23:00,VALID,918.112,VALID,0,VALID,100,VALID,0,VALID,18.3797,VALID,16,VALID,0.294744,
2004-06-05, 00:24:00,VALID,918.145,VALID,0,VALID,100,VALID,0,VALID,18.3958,VALID,16,VALID,0.230808,
2004-06-05, 00:25:00,VALID,918.167,VALID,0,VALID,100,VALID,0,VALID,18.4021,VALID,16,VALID,0.0452009,
2004-06-05, 00:26:00,VALID,918.181,VALID,0,VALID,100,VALID,0,VALID,18.4025,VALID,21,VALID,0.361192,
2004-06-05, 00:27:00,VALID,918.183,VALID,0,VALID,100,VALID,0,VALID,18.412,VALID,71,VALID,0.743056,
2004-06-05, 00:28:00,VALID,918.168,VALID,0,VALID,100,VALID,0.0169808,VALID,18.4214,VALID,81,VALID,0.963605,
2004-06-05, 00:29:00,VALID,918.177,VALID,0,VALID,100,VALID,0,VALID,18.4113,VALID,89,VALID,0.997904,
2004-06-05, 00:30:00,VALID,918.173,VALID,0,VALID,100,VALID,0.0169808,VALID,18.3894,VALID,94,VALID,0.641927,
2004-06-05, 00:31:00,VALID,918.183,VALID,0,VALID,100,VALID,0.0169808,VALID,18.3665,VALID,96,VALID,0.103091,
2004-06-05, 00:32:00,VALID,918.183,VALID,0,VALID,100,VALID,0,VALID,18.3375,VALID,96,VALID,0,
2004-06-05, 00:33:00,VALID,918.188,VALID,0,VALID,100,VALID,0,VALID,18.3052,VALID,96,VALID,0.089527,
2004-06-05, 00:34:00,VALID,918.188,VALID,0,VALID,100,VALID,0.0169808,VALID,18.3024,VALID,95,VALID,0.608574,
2004-06-05, 00:35:00,VALID,918.184,VALID,0,VALID,100,VALID,0.0339617,VALID,18.2988,VALID,90,VALID,0.561166,
2004-06-05, 00:36:00,VALID,918.184,VALID,0,VALID,100,VALID,0.0169808,VALID,18.3054,VALID,105,VALID,0.619093,
2004-06-05, 00:37:00,VALID,918.177,VALID,0,VALID,100,VALID,0,VALID,18.2958,VALID,120,VALID,0.851207,
2004-06-05, 00:38:00,VALID,918.175,VALID,0,VALID,100,VALID,0,VALID,18.2983,VALID,123,VALID,0.90811,
2004-06-05, 00:39:00,VALID,918.163,VALID,0,VALID,100,VALID,0,VALID,18.2953,VALID,124,VALID,0.794034,
2004-06-05, 00:40:00,VALID,918.163,VALID,0,VALID,100,VALID,0,VALID,18.3024,VALID,118,VALID,0.679874,
2004-06-05, 00:41:00,VALID,918.155,VALID,0,VALID,100,VALID,0,VALID,18.3216,VALID,113,VALID,0.625,
2004-06-05, 00:42:00,VALID,918.147,VALID,0,VALID,100,VALID,0,VALID,18.3181,VALID,90,VALID,0.878239,
2004-06-05, 00:43:00,VALID,918.161,VALID,0,VALID,100,VALID,0,VALID,18.367,VALID,91,VALID,0.768483,
2004-06-05, 00:44:00,VALID,918.169,VALID,0,VALID,100,VALID,0.0169808,VALID,18.3958,VALID,91,VALID,0.554869,
2004-06-05, 00:45:00,VALID,918.172,VALID,0,VALID,100,VALID,0,VALID,18.4283,VALID,91,VALID,0.184659,
2004-06-05, 00:46:00,VALID,918.188,VALID,0,VALID,100,VALID,0,VALID,18.4115,VALID,91,VALID,0.178993,
2004-06-05, 00:47:00,VALID,918.19,VALID,0,VALID,100,VALID,0,VALID,18.4021,VALID,87,VALID,0.321733,
2004-06-05, 00:48:00,VALID,918.173,VALID,0,VALID,100,VALID,0,VALID,18.3795,VALID,71,VALID,0.456174,
2004-06-05, 00:49:00,VALID,918.152,VALID,0,VALID,100,VALID,0.0169808,VALID,18.373,VALID,71,VALID,0.480196,
2004-06-05, 00:50:00,VALID,918.134,VALID,0,VALID,100,VALID,0.0169808,VALID,18.3827,VALID,71,VALID,0.607195,
2004-06-05, 00:51:00,VALID,918.099,VALID,0,VALID,100,VALID,0.0169808,VALID,18.3861,VALID,71,VALID,0.658346,
2004-06-05, 00:52:00,VALID,918.072,VALID,0,VALID,100,VALID,0,VALID,18.4023,VALID,76,VALID,0.718023,
2004-06-05, 00:53:00,VALID,918.051,VALID,0,VALID,100,VALID,-0.0169808,VALID,18.4214,VALID,88,VALID,0.751953,
2004-06-05, 00:54:00,VALID,918.015,VALID,0,VALID,100,VALID,0,VALID,18.4731,VALID,110,VALID,0.828646,
2004-06-05, 00:55:00,VALID,917.982,VALID,0,VALID,100,VALID,0,VALID,18.4698,VALID,132,VALID,0.926339,
2004-06-05, 00:56:00,VALID,917.956,VALID,0,VALID,100,VALID,0,VALID,18.4572,VALID,147,VALID,0.674964,
2004-06-05, 00:57:00,VALID,917.922,VALID,0,VALID,100,VALID,0.0169808,VALID,18.4537,VALID,143,VALID,0.871761,
2004-06-05, 00:58:00,VALID,917.913,VALID,0,VALID,100,VALID,0.0169808,VALID,18.4532,VALID,143,VALID,0.818274,
2004-06-05, 00:59:00,VALID,917.895,VALID,0,VALID,100,VALID,0.0169808,VALID,18.4696,VALID,145,VALID,0.690104,
2004-06-05, 01:00:00,VALID,917.879,VALID,0,VALID,100,VALID,0.0169808,VALID,18.4666,VALID,144,VALID,0.704514,
2004-06-05, 01:01:00,VALID,917.87,VALID,0,VALID,100,VALID,0,VALID,18.4468,VALID,143,VALID,0.65067,
2004-06-05, 01:02:00,VALID,917.86,VALID,0,VALID,100,VALID,0.0169808,VALID,18.4544,VALID,143,VALID,0.644922,
2004-06-05, 01:03:00,VALID,917.847,VALID,0,VALID,100,VALID,0.0339617,VALID,18.441,VALID,143,VALID,0.536272,
2004-06-05, 01:04:00,VALID,917.837,VALID,0,VALID,100,VALID,0.0169808,VALID,18.418,VALID,142,VALID,0.462326,
2004-06-05, 01:05:00,VALID,917.824,VALID,0,VALID,100,VALID,0,VALID,18.3986,VALID,141,VALID,0.309896,
2004-06-05, 01:06:00,VALID,917.802,VALID,0,VALID,100,VALID,0,VALID,18.3956,VALID,132,VALID,0.256214,
2004-06-05, 01:07:00,VALID,917.789,VALID,0,VALID,100,VALID,0.0169808,VALID,18.3827,VALID,76,VALID,0.640439,
2004-06-05, 01:08:00,VALID,917.776,VALID,0,VALID,100,VALID,0.0169808,VALID,18.3728,VALID,75,VALID,0.242746,
2004-06-05, 01:09:00,VALID,917.753,VALID,0,VALID,100,VALID,0,VALID,18.373,VALID,94,VALID,0.511991,
2004-06-05, 01:10:00,VALID,917.731,VALID,0,VALID,100,VALID,0,VALID,18.3797,VALID,142,VALID,0.666481,
2004-06-05, 01:11:00,VALID,917.726,VALID,0,VALID,100,VALID,0.0169808,VALID,18.3698,VALID,135,VALID,0.91276,
2004-06-05, 01:12:00,VALID,917.722,VALID,0,VALID,100,VALID,-0.0169808,VALID,18.3829,VALID,145,VALID,0.964844,
2004-06-05, 01:13:00,VALID,917.706,VALID,0,VALID,100,VALID,0,VALID,18.3762,VALID,148,VALID,0.971418,
2004-06-05, 01:14:00,VALID,917.697,VALID,0,VALID,100,VALID,0.0169808,VALID,18.3797,VALID,142,VALID,0.942508,
2004-06-05, 01:15:00,VALID,917.681,VALID,0,VALID,100,VALID,0.0169808,VALID,18.3928,VALID,136,VALID,1.07102,
2004-06-05, 01:16:00,VALID,917.678,VALID,0,VALID,100,VALID,-0.0169808,VALID,18.3827,VALID,134,VALID,0.725291,
2004-06-05, 01:17:00,VALID,917.659,VALID,0,VALID,100,VALID,0.0169808,VALID,18.3695,VALID,132,VALID,0.680233,
2004-06-05, 01:18:00,VALID,917.636,VALID,0,VALID,100,VALID,0,VALID,18.3732,VALID,135,VALID,0.912609,
2004-06-05, 01:19:00,VALID,917.62,VALID,0,VALID,100,VALID,0,VALID,18.4092,VALID,142,VALID,0.758575,
2004-06-05, 01:20:00,VALID,917.598,VALID,0,VALID,100,VALID,0,VALID,18.4249,VALID,133,VALID,0.531441,
2004-06-05, 01:21:00,VALID,917.57,VALID,0,VALID,100,VALID,0,VALID,18.4117,VALID,133,VALID,0.173549,
2004-06-05, 01:22:00,VALID,917.534,VALID,0,VALID,99.9967,VALID,-0.0169808,VALID,18.4053,VALID,133,VALID,0.252486,
2004-06-05, 01:23:00,VALID,917.507,VALID,0,VALID,99.999,VALID,0.0169808,VALID,18.4055,VALID,133,VALID,0.451265,
2004-06-05, 01:24:00,VALID,917.481,VALID,0,VALID,100,VALID,0,VALID,18.412,VALID,133,VALID,0.317308,
2004-06-05, 01:25:00,VALID,917.448,VALID,0,VALID,100,VALID,0,VALID,18.4147,VALID,133,VALID,0.102148,
2004-06-05, 01:26:00,VALID,917.435,VALID,0,VALID,100,VALID,0.0339617,VALID,18.4182,VALID,133,VALID,0,
2004-06-05, 01:27:00,VALID,917.414,VALID,0,VALID,99.968,VALID,0.0169808,VALID,18.4115,VALID,133,VALID,0,
2004-06-05, 01:28:00,VALID,917.403,VALID,0,VALID,99.8934,VALID,-0.0169808,VALID,18.3788,VALID,133,VALID,0.146439,
2004-06-05, 01:29:00,VALID,917.396,VALID,0,VALID,99.9214,VALID,0.0169808,VALID,18.3993,VALID,133,VALID,0.0823038,
2004-06-05, 01:30:00,VALID,917.396,VALID,0,VALID,100,VALID,-0.0169808,VALID,18.4383,VALID,141,VALID,0.313996,
2004-06-05, 01:31:00,VALID,917.385,VALID,0,VALID,100,VALID,0,VALID,18.4668,VALID,258,VALID,0.706577,
2004-06-05, 01:32:00,VALID,917.37,VALID,0,VALID,100,VALID,0,VALID,18.5024,VALID,272,VALID,0.925967,
2004-06-05, 01:33:00,VALID,917.361,VALID,0,VALID,100,VALID,-0.0339617,VALID,18.5217,VALID,278,VALID,0.709847,
2004-06-05, 01:34:00,VALID,917.349,VALID,0,VALID,99.999,VALID,-0.0169808,VALID,18.5314,VALID,278,VALID,0.583891,
2004-06-05, 01:35:00,VALID,917.329,VALID,0,VALID,99.9931,VALID,-0.0169808,VALID,18.5287,VALID,278,VALID,0.401389,
2004-06-05, 01:36:00,VALID,917.313,VALID,0,VALID,99.9977,VALID,-0.0169808,VALID,18.5183,VALID,278,VALID,0.177989,
2004-06-05, 01:37:00,VALID,917.292,VALID,0,VALID,100,VALID,-0.0169808,VALID,18.5284,VALID,278,VALID,0.0448718,
2004-06-05, 01:38:00,VALID,917.294,VALID,0,VALID,100,VALID,-0.0169808,VALID,18.5413,VALID,278,VALID,0.0144231,
2004-06-05, 01:39:00,VALID,917.279,VALID,0,VALID,100,VALID,0,VALID,18.5312,VALID,278,VALID,0.22832,
2004-06-05, 01:40:00,VALID,917.262,VALID,0,VALID,100,VALID,0,VALID,18.5314,VALID,278,VALID,0.0982639,
2004-06-05, 01:41:00,VALID,917.26,VALID,0,VALID,100,VALID,0,VALID,18.5118,VALID,278,VALID,0.107376,
2004-06-05, 01:42:00,VALID,917.244,VALID,0,VALID,100,VALID,0,VALID,18.5316,VALID,278,VALID,0.0053267,
2004-06-05, 01:43:00,VALID,917.236,VALID,0,VALID,100,VALID,0,VALID,18.5187,VALID,278,VALID,0,
2004-06-05, 01:44:00,VALID,917.235,VALID,0,VALID,100,VALID,-0.0169808,VALID,18.5187,VALID,278,VALID,0.0134943,
2004-06-05, 01:45:00,VALID,917.239,VALID,0,VALID,100,VALID,0,VALID,18.5153,VALID,278,VALID,0,
2004-06-05, 01:46:00,VALID,917.242,VALID,0,VALID,100,VALID,0,VALID,18.5153,VALID,278,VALID,0,
2004-06-05, 01:47:00,VALID,917.226,VALID,0,VALID,100,VALID,-0.0169808,VALID,18.5051,VALID,278,VALID,0.0176711,
2004-06-05, 01:48:00,VALID,917.243,VALID,0,VALID,100,VALID,0,VALID,18.4952,VALID,278,VALID,0,
2004-06-05, 01:49:00,VALID,917.237,VALID,0,VALID,99.9916,VALID,0.0169808,VALID,18.4698,VALID,278,VALID,0,
2004-06-05, 01:50:00,VALID,917.253,VALID,0,VALID,99.9494,VALID,0,VALID,18.4247,VALID,278,VALID,0,
2004-06-05, 01:51:00,VALID,917.26,VALID,0,VALID,99.9201,VALID,0,VALID,18.4023,VALID,278,VALID,0,
2004-06-05, 01:52:00,VALID,917.249,VALID,0,VALID,99.8807,VALID,0.0169808,VALID,18.376,VALID,278,VALID,0.231213,
2004-06-05, 01:53:00,VALID,917.273,VALID,0,VALID,99.9519,VALID,0,VALID,18.3735,VALID,277,VALID,0.344113,
2004-06-05, 01:54:00,VALID,917.278,VALID,0,VALID,100,VALID,0,VALID,18.3569,VALID,137,VALID,0.610263,
2004-06-05, 01:55:00,VALID,917.297,VALID,0,VALID,100,VALID,0.0169808,VALID,18.3539,VALID,110,VALID,0.609947,
2004-06-05, 01:56:00,VALID,917.312,VALID,0,VALID,100,VALID,0,VALID,18.3308,VALID,109,VALID,0.667225,
2004-06-05, 01:57:00,VALID,917.319,VALID,0,VALID,100,VALID,0.0169808,VALID,18.3248,VALID,110,VALID,0.739025,
2004-06-05, 01:58:00,VALID,917.313,VALID,0,VALID,100,VALID,0,VALID,18.3018,VALID,126,VALID,1.20871,
2004-06-05, 01:59:00,VALID,917.319,VALID,0,VALID,100,VALID,0,VALID,18.3119,VALID,134,VALID,1.26136,
2004-06-05, 02:00:00,VALID,917.319,VALID,0,VALID,100,VALID,0,VALID,18.331,VALID,141,VALID,1.27699,
2004-06-05, 02:01:00,VALID,917.333,VALID,0,VALID,100,VALID,0,VALID,18.3373,VALID,147,VALID,1.23535,
2004-06-05, 02:02:00,VALID,917.337,VALID,0,VALID,100,VALID,0,VALID,18.3566,VALID,139,VALID,1.07153,
2004-06-05, 02:03:00,VALID,917.328,VALID,0,VALID,100,VALID,0,VALID,18.3606,VALID,141,VALID,1.40365,
2004-06-05, 02:04:00,VALID,917.325,VALID,0,VALID,100,VALID,0,VALID,18.3601,VALID,134,VALID,1.30149,
2004-06-05, 02:05:00,VALID,917.323,VALID,0,VALID,100,VALID,-0.0169808,VALID,18.3677,VALID,136,VALID,1.26036,
2004-06-05, 02:06:00,VALID,917.329,VALID,0,VALID,100,VALID,-0.0169808,VALID,18.3539,VALID,136,VALID,1.18559,
2004-06-05, 02:07:00,VALID,917.317,VALID,0,VALID,100,VALID,0.0169808,VALID,18.3472,VALID,134,VALID,1.06345,
2004-06-05, 02:08:00,VALID,917.323,VALID,0,VALID,100,VALID,0,VALID,18.3407,VALID,134,VALID,0.673295,
2004-06-05, 02:09:00,VALID,917.321,VALID,0,VALID,100,VALID,0,VALID,18.3509,VALID,135,VALID,0.476385,
2004-06-05, 02:10:00,VALID,917.302,VALID,0,VALID,100,VALID,0,VALID,18.3375,VALID,135,VALID,0.515104,
2004-06-05, 02:11:00,VALID,917.276,VALID,0,VALID,100,VALID,0.0169808,VALID,18.341,VALID,135,VALID,0.551562,
2004-06-05, 02:12:00,VALID,917.239,VALID,0,VALID,100,VALID,-0.0169808,VALID,18.3474,VALID,128,VALID,0.593568,
2004-06-05, 02:13:00,VALID,917.219,VALID,0,VALID,100,VALID,0,VALID,18.3509,VALID,49,VALID,0.311166,
2004-06-05, 02:14:00,VALID,917.209,VALID,0,VALID,100,VALID,0,VALID,18.3278,VALID,47,VALID,0.36843,
2004-06-05, 02:15:00,VALID,917.184,VALID,0,VALID,100,VALID,0,VALID,18.3052,VALID,47,VALID,0.306734,
2004-06-05, 02:16:00,VALID,917.182,VALID,0,VALID,100,VALID,-0.0169808,VALID,18.2759,VALID,47,VALID,0.228379,
2004-06-05, 02:17:00,VALID,917.188,VALID,0,VALID,100,VALID,0,VALID,18.2898,VALID,47,VALID,0.183333,
2004-06-05, 02:18:00,VALID,917.193,VALID,0,VALID,100,VALID,0,VALID,18.3089,VALID,47,VALID,0.110863,
2004-06-05, 02:19:00,VALID,917.196,VALID,0,VALID,100,VALID,0,VALID,18.3601,VALID,332,VALID,0.329578,
2004-06-05, 02:20:00,VALID,917.197,VALID,0,VALID,100,VALID,-0.0169808,VALID,18.4316,VALID,329,VALID,0.289063,
2004-06-05, 02:21:00,VALID,917.198,VALID,0,VALID,100,VALID,-0.0169808,VALID,18.4701,VALID,329,VALID,0.0686503,
2004-06-05, 02:22:00,VALID,917.183,VALID,0,VALID,100,VALID,0,VALID,18.4994,VALID,329,VALID,0,
2004-06-05, 02:23:00,VALID,917.163,VALID,0,VALID,100,VALID,-0.0169808,VALID,18.4885,VALID,329,VALID,0,
2004-06-05, 02:24:00,VALID,917.135,VALID,0,VALID,100,VALID,-0.0169808,VALID,18.4924,VALID,341,VALID,0.289608,
2004-06-05, 02:25:00,VALID,917.132,VALID,0,VALID,100,VALID,-0.0339617,VALID,18.5381,VALID,353,VALID,0.394345,
2004-06-05, 02:26:00,VALID,917.124,VALID,0,VALID,100,VALID,0,VALID,18.5512,VALID,341,VALID,0.576126,
2004-06-05, 02:27:00,VALID,917.125,VALID,0,VALID,100,VALID,0,VALID,18.6089,VALID,323,VALID,0.407465,
2004-06-05, 02:28:00,VALID,917.103,VALID,0,VALID,100,VALID,-0.0169808,VALID,18.6707,VALID,316,VALID,0.225291,
2004-06-05, 02:29:00,VALID,917.089,VALID,0,VALID,99.9916,VALID,0,VALID,18.7057,VALID,233,VALID,0.334821,
2004-06-05, 02:30:00,VALID,917.07,VALID,0,VALID,99.8553,VALID,0,VALID,18.7085,VALID,229,VALID,0.00253906,
2004-06-05, 02:31:00,VALID,917.068,VALID,0,VALID,99.6531,VALID,0,VALID,18.7122,VALID,229,VALID,0.0719105,
2004-06-05, 02:32:00,VALID,917.045,VALID,0,VALID,99.381,VALID,-0.0169808,VALID,18.6797,VALID,230,VALID,0.54184,
2004-06-05, 02:33:00,VALID,917.038,VALID,0,VALID,99.1445,VALID,0,VALID,18.6414,VALID,3,VALID,0.734908,
2004-06-05, 02:34:00,VALID,917.045,VALID,0,VALID,99.0173,VALID,0,VALID,18.5895,VALID,27,VALID,0.575391,
2004-06-05, 02:35:00,VALID,917.071,VALID,0,VALID,99.1572,VALID,0,VALID,18.5994,VALID,320,VALID,0.793605,
2004-06-05, 02:36:00,VALID,917.109,VALID,0,VALID,99.3085,VALID,0,VALID,18.6571,VALID,244,VALID,0.825994,
2004-06-05, 02:37:00,VALID,917.089,VALID,0,VALID,99.3149,VALID,-0.0169808,VALID,18.6928,VALID,274,VALID,0.262005,
2004-06-05, 02:38:00,VALID,917.056,VALID,0,VALID,99.3594,VALID,0,VALID,18.6857,VALID,30,VALID,1.58445,
2004-06-05, 02:39:00,VALID,917.089,VALID,0,VALID,99.3314,VALID,0,VALID,18.7117,VALID,321,VALID,0.802778,
2004-06-05, 02:40:00,VALID,917.109,VALID,0,VALID,99.2017,VALID,-0.0169808,VALID,18.7316,VALID,260,VALID,0.679506,
2004-06-05, 02:41:00,VALID,917.115,VALID,0,VALID,99.1368,VALID,-0.0169808,VALID,18.7346,VALID,289,VALID,0.462936,
2004-06-05, 02:42:00,VALID,917.109,VALID,0,VALID,99.1228,VALID,0,VALID,18.7606,VALID,359,VALID,0.97218,
2004-06-05, 02:43:00,VALID,917.105,VALID,0,VALID,99.0186,VALID,0,VALID,18.78,VALID,359,VALID,0.85902,
2004-06-05, 02:44:00,VALID,917.141,VALID,0,VALID,98.8952,VALID,-0.0169808,VALID,18.8028,VALID,6,VALID,0.242543,
2004-06-05, 02:45:00,VALID,917.162,VALID,0,VALID,98.796,VALID,-0.0169808,VALID,18.7763,VALID,6,VALID,0.301897,
2004-06-05, 02:46:00,VALID,917.174,VALID,0,VALID,98.8304,VALID,0,VALID,18.7862,VALID,6,VALID,0.107013,
2004-06-05, 02:47:00,VALID,917.188,VALID,0,VALID,98.9067,VALID,0,VALID,18.7897,VALID,6,VALID,0.0528193,
2004-06-05, 02:48:00,VALID,917.205,VALID,0,VALID,98.9563,VALID,0,VALID,18.7731,VALID,6,VALID,0.0673363,
2004-06-05, 02:49:00,VALID,917.228,VALID,0,VALID,98.9919,VALID,0,VALID,18.78,VALID,6,VALID,0.12314,
2004-06-05, 02:50:00,VALID,917.215,VALID,0,VALID,99.0427,VALID,-0.0169808,VALID,18.7502,VALID,11,VALID,0.405107,
2004-06-05, 02:51:00,VALID,917.208,VALID,0,VALID,99.133,VALID,0,VALID,18.7477,VALID,23,VALID,0.540587,
2004-06-05, 02:52:00,VALID,917.202,VALID,0,VALID,99.2665,VALID,0,VALID,18.7311,VALID,3,VALID,0.492188,
2004-06-05, 02:53:00,VALID,917.184,VALID,0,VALID,99.4077,VALID,0.0169808,VALID,18.7276,VALID,353,VALID,0.664663,
2004-06-05, 02:54:00,VALID,917.184,VALID,0,VALID,99.4547,VALID,0,VALID,18.7216,VALID,218,VALID,0.40718,
2004-06-05, 02:55:00,VALID,917.147,VALID,0,VALID,99.5107,VALID,0,VALID,18.7053,VALID,336,VALID,0.41806,
2004-06-05, 02:56:00,VALID,917.141,VALID,0,VALID,99.5997,VALID,0,VALID,18.7016,VALID,44,VALID,0.410342,
2004-06-05, 02:57:00,VALID,917.135,VALID,0,VALID,99.6569,VALID,-0.0169808,VALID,18.6988,VALID,316,VALID,0.288699,
2004-06-05, 02:58:00,VALID,917.13,VALID,0,VALID,99.648,VALID,0,VALID,18.699,VALID,291,VALID,0.219531,
2004-06-05, 02:59:00,VALID,917.128,VALID,0,VALID,99.7218,VALID,0,VALID,18.712,VALID,9,VALID,0.547965,
2004-06-05, 03:00:00,VALID,917.152,VALID,0,VALID,99.7675,VALID,0.0169808,VALID,18.7117,VALID,340,VALID,0.186612,
2004-06-05, 03:01:00,VALID,917.156,VALID,0,VALID,99.7917,VALID,0,VALID,18.7212,VALID,344,VALID,0.00887784,
2004-06-05, 03:02:00,VALID,917.149,VALID,0,VALID,99.8108,VALID,0,VALID,18.7286,VALID,347,VALID,0.167683,
2004-06-05, 03:03:00,VALID,917.146,VALID,0,VALID,99.8718,VALID,-0.0169808,VALID,18.7348,VALID,4,VALID,0.723479,
2004-06-05, 03:04:00,VALID,917.138,VALID,0,VALID,99.8985,VALID,0,VALID,18.7408,VALID,11,VALID,0.710379,
2004-06-05, 03:05:00,VALID,917.109,VALID,0,VALID,99.8477,VALID,0,VALID,18.741,VALID,4,VALID,0.625363,
2004-06-05, 03:06:00,VALID,917.078,VALID,0,VALID,99.7739,VALID,0,VALID,18.7182,VALID,353,VALID,0.308498,
2004-06-05, 03:07:00,VALID,917.045,VALID,0,VALID,99.7739,VALID,0,VALID,18.7346,VALID,353,VALID,0.0788194,
2004-06-05, 03:08:00,VALID,917.025,VALID,0,VALID,99.7765,VALID,0,VALID,18.7343,VALID,353,VALID,0.517361,
2004-06-05, 03:09:00,VALID,916.982,VALID,0,VALID,99.6874,VALID,0,VALID,18.7274,VALID,3,VALID,0.845246,
2004-06-05, 03:10:00,VALID,916.96,VALID,0,VALID,99.5908,VALID,0,VALID,18.7442,VALID,16,VALID,1.04651,
2004-06-05, 03:11:00,VALID,916.942,VALID,0,VALID,99.4649,VALID,-0.0169808,VALID,18.7565,VALID,8,VALID,0.790039,
2004-06-05, 03:12:01,VALID,916.945,VALID,0,VALID,99.339,VALID,0,VALID,18.789,VALID,356,VALID,0.106357,
2004-06-05, 03:13:00,VALID,916.936,VALID,0,VALID,99.2309,VALID,-0.0339617,VALID,18.7892,VALID,356,VALID,0.210007,
2004-06-05, 03:14:00,VALID,916.921,VALID,0,VALID,99.2347,VALID,0,VALID,18.7989,VALID,356,VALID,0.227307,
2004-06-05, 03:15:00,VALID,916.914,VALID,0,VALID,99.2742,VALID,-0.0169808,VALID,18.7924,VALID,359,VALID,0.275981,
2004-06-05, 03:16:00,VALID,916.909,VALID,0,VALID,99.2958,VALID,0.0339617,VALID,18.7793,VALID,19,VALID,1.24551,
2004-06-05, 03:17:00,VALID,916.912,VALID,0,VALID,99.1292,VALID,0,VALID,18.7631,VALID,23,VALID,1.05996,
2004-06-05, 03:18:00,VALID,916.914,VALID,0,VALID,99.0313,VALID,0,VALID,18.7825,VALID,23,VALID,0.78218,
2004-06-05, 03:19:00,VALID,916.915,VALID,0,VALID,98.9105,VALID,0,VALID,18.7922,VALID,17,VALID,0.335938,
2004-06-05, 03:20:00,VALID,916.892,VALID,0,VALID,98.8545,VALID,0.0679233,VALID,18.815,VALID,17,VALID,0.483631,
2004-06-05, 03:21:00,VALID,916.878,VALID,0,VALID,98.8189,VALID,0.0339617,VALID,18.7878,VALID,18,VALID,0.580305,
2004-06-05, 03:22:00,VALID,916.873,VALID,0,VALID,98.7719,VALID,0.101885,VALID,18.7915,VALID,18,VALID,0.590661,
2004-06-05, 03:23:00,VALID,916.874,VALID,0,VALID,98.7617,VALID,0.0339617,VALID,18.8176,VALID,22,VALID,0.40987,
2004-06-05, 03:24:00,VALID,916.885,VALID,0,VALID,98.7401,VALID,0.0849042,VALID,18.8176,VALID,23,VALID,0.506925,
2004-06-05, 03:25:00,VALID,916.894,VALID,0,VALID,98.7032,VALID,0.0849042,VALID,18.8072,VALID,6,VALID,0.51875,
2004-06-05, 03:26:00,VALID,916.92,VALID,0,VALID,98.6892,VALID,0.0509425,VALID,18.8076,VALID,37,VALID,0.365999,
2004-06-05, 03:27:00,VALID,916.942,VALID,0,VALID,98.6765,VALID,0.0849042,VALID,18.8171,VALID,41,VALID,0.0740327,
2004-06-05, 03:28:00,VALID,916.974,VALID,0,VALID,98.6155,VALID,0.0679233,VALID,18.8238,VALID,39,VALID,0.277253,
2004-06-05, 03:29:01,VALID,916.998,VALID,0,VALID,98.6066,VALID,0.0849042,VALID,18.8302,VALID,35,VALID,0.0957961,
2004-06-05, 03:30:00,VALID,917.025,VALID,0,VALID,98.688,VALID,0.0679233,VALID,18.8404,VALID,22,VALID,0.387173,
2004-06-05, 03:31:01,VALID,917.051,VALID,0,VALID,98.7401,VALID,0.0339617,VALID,18.8404,VALID,11,VALID,0.760603,
2004-06-05, 03:32:00,VALID,917.056,VALID,0,VALID,98.7465,VALID,0.0169808,VALID,18.824,VALID,12,VALID,0.570858,
2004-06-05, 03:33:00,VALID,917.076,VALID,0,VALID,98.6346,VALID,0.0509425,VALID,18.8404,VALID,6,VALID,1.05984,
2004-06-05, 03:34:00,VALID,917.082,VALID,0,VALID,98.4336,VALID,0.0849042,VALID,18.8722,VALID,18,VALID,0.954723,
2004-06-05, 03:35:00,VALID,917.1,VALID,0,VALID,98.173,VALID,0,VALID,18.9186,VALID,15,VALID,0.978516,
2004-06-05, 03:36:00,VALID,917.114,VALID,0,VALID,97.8652,VALID,-0.0679233,VALID,18.958,VALID,12,VALID,0.970424,
2004-06-05, 03:37:00,VALID,917.136,VALID,0,VALID,97.4214,VALID,-0.0679233,VALID,18.9965,VALID,14,VALID,0.829268,
2004-06-05, 03:38:01,VALID,917.152,VALID,0,VALID,97.2129,VALID,-0.0339617,VALID,19.0385,VALID,14,VALID,0.671148,
2004-06-05, 03:39:00,VALID,917.165,VALID,0,VALID,97.04,VALID,-0.0339617,VALID,19.0579,VALID,13,VALID,0.631771,
2004-06-05, 03:40:01,VALID,917.155,VALID,0,VALID,96.9904,VALID,-0.0339617,VALID,19.0678,VALID,11,VALID,0.724702,
2004-06-05, 03:41:01,VALID,917.142,VALID,0,VALID,96.9509,VALID,-0.0509425,VALID,19.077,VALID,15,VALID,1.09557,
2004-06-05, 03:42:01,VALID,917.134,VALID,0,VALID,96.942,VALID,-0.0339617,VALID,19.0837,VALID,24,VALID,0.971484,
2004-06-05, 03:43:01,VALID,917.125,VALID,0,VALID,96.8225,VALID,-0.0679233,VALID,19.0837,VALID,32,VALID,0.855183,